KA5RUC Weather Reports


time (UTC)temp
F
wind
direction
speed
knots
gust
knots
rain 1hr
in
rain 24hr
in
rain mn
in
humidity
%
barometer
mb
20260508231328 62 287 0.0 0.0 0.00 0.00 0.01 64 1010.5
20260508230819 62 287 0.0 0.0 0.00 0.00 0.01 64 1010.5
20260508230325 63 287 0.0 0.0 0.00 0.00 0.01 60 1010.3
20260508225834 63 287 0.0 0.0 0.00 0.00 0.01 58 1010.3
20260508225321 63 287 0.0 0.0 0.00 0.00 0.01 57 1010.3
20260508224830 63 287 0.0 0.0 0.00 0.00 0.01 57 1010.3
20260508224316 64 287 0.0 0.0 0.00 0.00 0.01 55 1010.3
20260508223827 64 272 0.0 0.0 0.00 0.00 0.01 53 1010.3
20260508223332 64 271 0.0 0.0 0.00 0.00 0.01 52 1010.4
20260508222822 64 275 0.0 0.0 0.00 0.00 0.00 52 1010.4
20260508222333 64 277 0.0 0.0 0.00 0.00 0.00 52 1010.4
20260508221821 64 277 0.0 0.0 0.00 0.00 0.00 51 1010.4
20260508221327 64 285 0.0 0.0 0.00 0.00 0.00 51 1010.4
20260508220838 65 274 0.0 0.0 0.00 0.00 0.00 51 1010.4
20260508220324 65 265 0.0 0.0 0.00 0.00 0.00 49 1010.4
20260508215831 65 268 0.0 0.0 0.00 0.00 0.00 48 1010.4
20260508215318 65 244 0.0 0.0 0.00 0.00 0.00 48 1010.4
20260508214826 65 259 0.0 0.0 0.00 0.00 0.00 48 1010.3
20260508214335 65 238 0.0 0.0 0.00 0.00 0.00 48 1010.3
20260508213336 65 229 0.9 0.0 0.00 0.00 0.00 47 1010.3
20260508212825 65 271 0.9 0.0 0.00 0.00 0.00 47 1010.3
20260508212332 65 234 0.9 0.0 0.00 0.00 0.00 46 1010.3
20260508211822 65 249 0.9 0.0 0.00 0.00 0.00 46 1010.7
20260508211329 65 255 0.9 0.0 0.00 0.00 0.00 47 1010.7
20260508210327 65 223 2.6 0.0 0.00 0.00 0.00 46 1010.9
20260508205836 65 221 2.6 0.0 0.00 0.00 0.00 46 1010.9
20260508205324 65 237 1.7 0.0 0.00 0.00 0.00 46 1010.9
20260508204815 65 248 0.9 0.0 0.00 0.00 0.00 46 1010.9
20260508203837 66 271 2.6 0.0 0.00 0.00 0.00 46 1010.9
20260508203324 66 197 3.5 0.0 0.00 0.00 0.00 45 1011.3
20260508202832 66 248 4.3 0.0 0.00 0.00 0.00 46 1011.3
20260508202321 66 229 3.5 0.0 0.00 0.00 0.00 45 1011.3
20260508201323 66 247 0.9 0.0 0.00 0.00 0.00 47 1011.2
20260508200320 66 237 1.7 0.0 0.00 0.00 0.00 47 1011.4
20260508195827 66 236 1.7 0.0 0.00 0.00 0.00 47 1011.4
20260508195320 66 243 1.7 0.0 0.00 0.00 0.00 46 1011.4
20260508194827 66 264 0.9 0.0 0.00 0.00 0.00 46 1011.5
20260508194336 66 239 3.5 0.0 0.00 0.00 0.00 46 1011.5
20260508193824 66 232 3.5 0.0 0.00 0.00 0.00 46 1011.5
20260508193331 66 229 1.7 0.0 0.00 0.00 0.00 47 1011.8
20260508192822 66 274 1.7 0.0 0.00 0.00 0.00 47 1011.8
20260508192329 67 250 1.7 0.0 0.00 0.00 0.00 47 1011.8
20260508191818 67 217 2.6 0.0 0.00 0.00 0.00 47 1012.0
20260508191325 67 273 3.5 0.0 0.00 0.00 0.00 48 1012.0
20260508185817 67 258 2.6 0.0 0.00 0.00 0.00 47 1012.2
20260508185328 67 261 3.5 0.0 0.00 0.00 0.00 48 1012.2
20260508184814 67 260 4.3 0.0 0.00 0.00 0.00 47 1012.4
20260508184326 67 234 4.3 0.0 0.00 0.00 0.00 47 1012.4
20260508182832 66 246 4.3 0.0 0.00 0.00 0.00 48 1012.6
20260508182320 66 244 3.5 0.0 0.00 0.00 0.00 50 1012.6
20260508181828 66 269 4.3 0.0 0.00 0.00 0.00 48 1012.7
20260508181318 65 243 4.3 0.0 0.00 0.00 0.00 48 1012.7
20260508180830 65 260 4.3 0.0 0.00 0.00 0.00 48 1012.7
20260508175317 65 257 2.6 0.0 0.00 0.00 0.00 49 1013.1
20260508174827 65 248 2.6 0.0 0.00 0.00 0.00 48 1013.2
20260508174335 65 259 4.3 0.0 0.00 0.00 0.00 50 1013.2
20260508173824 64 275 5.2 0.0 0.00 0.00 0.00 48 1013.2
20260508173331 64 250 4.3 0.0 0.00 0.00 0.00 48 1013.5
20260508172818 65 288 4.3 0.0 0.00 0.00 0.00 48 1013.5
20260508172328 65 286 4.3 0.0 0.00 0.00 0.00 49 1013.5
20260508171822 65 229 3.5 0.0 0.00 0.00 0.00 48 1013.7
20260508171330 65 248 3.5 0.0 0.00 0.00 0.00 49 1013.7
20260508170838 65 173 3.5 0.0 0.00 0.00 0.00 49 1013.7
20260508170324 65 225 4.3 0.0 0.00 0.00 0.00 48 1013.9
20260508165834 65 248 2.6 0.0 0.00 0.00 0.00 48 1013.9
20260508165322 65 218 1.7 0.0 0.00 0.00 0.00 51 1013.9
20260508164830 64 198 3.5 0.0 0.00 0.00 0.00 51 1014.2
20260508163830 65 250 3.5 0.0 0.00 0.00 0.00 50 1014.2
20260508163318 64 240 4.3 0.0 0.00 0.00 0.00 50 1014.2
20260508162831 64 223 2.6 0.0 0.00 0.00 0.00 49 1014.2
20260508162320 65 281 1.7 0.0 0.00 0.00 0.00 50 1014.2
20260508161827 64 188 1.7 0.0 0.00 0.00 0.00 51 1014.4
20260508161336 64 219 1.7 0.0 0.00 0.00 0.00 51 1014.4
20260508160333 63 291 3.5 0.0 0.00 0.00 0.00 52 1014.7
20260508155821 63 209 3.5 0.0 0.00 0.00 0.00 51 1014.7
20260508155329 64 213 2.6 0.0 0.00 0.00 0.00 51 1014.7
20260508154817 63 195 1.7 0.0 0.00 0.00 0.00 54 1014.8
20260508154324 63 248 2.6 0.0 0.00 0.00 0.00 55 1014.8
20260508153819 62 186 2.6 0.0 0.00 0.00 0.00 53 1014.8
20260508153327 62 194 1.7 0.0 0.00 0.00 0.00 55 1014.9
20260508152818 61 257 2.6 0.0 0.00 0.00 0.00 57 1014.9
20260508152325 60 241 4.3 0.0 0.00 0.00 0.00 56 1014.9
20260508151836 59 202 4.3 0.0 0.00 0.00 0.00 56 1015.1
20260508151323 59 227 3.5 0.0 0.00 0.00 0.00 55 1015.1
20260508150833 59 244 2.6 0.0 0.00 0.00 0.00 56 1015.1
20260508150321 59 286 2.6 0.0 0.00 0.00 0.00 55 1015.1
20260508145830 59 229 3.5 0.0 0.00 0.00 0.00 56 1015.1
20260508145323 59 277 3.5 0.0 0.00 0.00 0.00 56 1015.1
20260508144835 59 244 3.5 0.0 0.00 0.00 0.00 55 1015.3
20260508144321 59 257 3.5 0.0 0.00 0.00 0.00 55 1015.3
20260508143832 59 226 3.5 0.0 0.00 0.00 0.00 54 1015.3
20260508143319 59 290 2.6 0.0 0.00 0.00 0.00 56 1015.4
20260508142827 59 216 2.6 0.0 0.00 0.00 0.00 54 1015.4
20260508141827 58 227 4.3 0.0 0.00 0.00 0.00 54 1015.5
20260508141315 58 257 3.5 0.0 0.00 0.00 0.00 54 1015.5
20260508140830 58 257 4.3 0.0 0.00 0.00 0.00 55 1015.5
20260508140336 58 234 5.2 0.0 0.00 0.00 0.00 55 1015.5
20260508135823 57 252 5.2 0.0 0.00 0.00 0.00 53 1015.5
20260508135330 57 238 3.5 0.0 0.00 0.00 0.00 54 1015.5
20260508134821 58 279 3.5 0.0 0.00 0.00 0.00 55 1015.5
20260508134328 57 265 3.5 0.0 0.00 0.00 0.00 55 1015.5
20260508133819 57 303 3.5 0.0 0.00 0.00 0.00 55 1015.5
20260508133326 57 248 3.5 0.0 0.00 0.00 0.00 55 1015.4
20260508132836 56 245 2.6 0.0 0.00 0.00 0.00 56 1015.4
20260508132328 56 270 2.6 0.0 0.00 0.00 0.00 57 1015.4
20260508131817 55 238 1.7 0.0 0.00 0.00 0.00 59 1015.4
20260508131327 55 229 1.7 0.0 0.00 0.00 0.00 59 1015.4
20260508130818 54 183 1.7 0.0 0.00 0.00 0.00 60 1015.4
20260508125835 54 195 1.7 0.0 0.00 0.00 0.00 61 1015.4
20260508125322 53 226 1.7 0.0 0.00 0.00 0.00 62 1015.4
20260508124831 53 151 0.9 0.0 0.00 0.00 0.00 64 1015.4
20260508124320 52 246 0.9 0.0 0.00 0.00 0.00 63 1015.4
20260508123829 52 234 0.9 0.0 0.00 0.00 0.00 64 1015.4
20260508123320 52 236 0.9 0.0 0.00 0.00 0.00 65 1015.4
20260508122828 51 217 0.9 0.0 0.00 0.00 0.00 66 1015.4
20260508122316 50 236 0.9 0.0 0.00 0.00 0.00 67 1015.4
20260508121826 50 262 0.0 0.0 0.00 0.00 0.00 67 1015.5
20260508121334 50 234 0.0 0.0 0.00 0.00 0.00 67 1015.5
20260508120823 49 244 0.0 0.0 0.00 0.00 0.00 68 1015.5
20260508120329 49 229 0.0 0.0 0.00 0.00 0.00 68 1015.4
20260508115838 49 267 0.9 0.0 0.00 0.00 0.00 67 1015.4
20260508115324 49 263 0.9 0.0 0.00 0.00 0.00 67 1015.4
20260508114836 49 223 0.9 0.0 0.00 0.00 0.00 66 1015.1
20260508114323 49 250 0.9 0.0 0.00 0.00 0.00 67 1015.1
20260508113834 49 250 0.9 0.0 0.00 0.00 0.00 67 1015.1
20260508113320 49 246 0.9 0.0 0.00 0.00 0.00 68 1015.1
20260508112317 48 241 0.0 0.0 0.00 0.00 0.00 68 1015.1
20260508111317 48 242 0.9 0.0 0.00 0.00 0.00 67 1015.0
20260508110826 48 236 0.9 0.0 0.00 0.00 0.00 68 1015.0
20260508110332 48 254 0.9 0.0 0.00 0.00 0.00 67 1014.9
20260508105825 48 243 0.9 0.0 0.00 0.00 0.00 68 1014.9
20260508105332 48 234 0.0 0.0 0.00 0.00 0.00 68 1014.9
20260508104821 48 214 0.9 0.0 0.00 0.00 0.00 68 1014.7
20260508104329 48 215 0.9 0.0 0.00 0.00 0.00 69 1014.7
20260508103836 48 173 0.9 0.0 0.00 0.00 0.00 69 1014.7
20260508102831 48 247 0.0 0.0 0.00 0.00 0.00 69 1014.9
20260508102320 47 212 0.0 0.0 0.00 0.00 0.00 70 1014.9
20260508101316 47 240 0.0 0.0 0.00 0.00 0.00 70 1014.9
20260508100827 47 186 0.0 0.0 0.00 0.00 0.00 71 1014.9
20260508100319 47 193 0.0 0.0 0.00 0.00 0.00 71 1014.9
20260508095319 46 201 0.0 0.0 0.00 0.00 0.00 71 1014.9
20260508094829 46 207 0.0 0.0 0.00 0.00 0.00 71 1015.0
20260508094317 46 225 0.0 0.0 0.00 0.00 0.00 71 1015.0
20260508093826 46 219 0.0 0.0 0.00 0.00 0.00 71 1015.0
20260508093333 46 221 0.0 0.0 0.00 0.00 0.00 70 1015.0
20260508092821 47 229 0.0 0.0 0.00 0.00 0.00 70 1015.0
20260508092329 47 245 0.0 0.0 0.00 0.00 0.00 70 1015.0
20260508091821 47 255 0.0 0.0 0.00 0.00 0.00 70 1015.0
20260508091328 47 239 0.0 0.0 0.00 0.00 0.00 70 1015.0
20260508090838 47 259 0.0 0.0 0.00 0.00 0.00 70 1015.0
20260508090325 47 236 0.0 0.0 0.00 0.00 0.00 70 1015.0
20260508085324 46 214 0.0 0.0 0.00 0.00 0.00 71 1015.0
20260508084832 46 233 0.0 0.0 0.00 0.00 0.00 71 1015.0
20260508084319 46 237 0.0 0.0 0.00 0.00 0.00 71 1015.0
20260508083316 46 235 0.0 0.0 0.00 0.00 0.00 70 1015.1
20260508082823 46 253 0.0 0.0 0.00 0.00 0.00 70 1015.1
20260508081336 46 227 0.0 0.0 0.00 0.00 0.00 70 1015.0
20260508080825 46 236 0.0 0.0 0.00 0.00 0.00 70 1015.0
20260508075822 46 223 0.0 0.0 0.00 0.00 0.00 70 1015.0
20260508075330 46 212 0.0 0.0 0.00 0.00 0.00 70 1015.0
20260508074818 46 211 0.0 0.0 0.00 0.00 0.00 69 1015.0
20260508074325 46 198 0.0 0.0 0.00 0.00 0.00 69 1015.0
20260508073323 47 198 0.0 0.0 0.00 0.00 0.00 68 1015.1
20260508072832 47 213 0.0 0.0 0.00 0.00 0.00 67 1015.1
20260508071834 47 239 0.0 0.0 0.00 0.00 0.00 66 1015.1
20260508071323 48 265 0.0 0.0 0.00 0.00 0.00 66 1015.1
20260508065834 48 220 0.0 0.0 0.00 0.00 0.00 66 1015.2
20260508065324 48 217 0.0 0.0 0.00 0.00 0.00 66 1015.2
20260508064831 48 176 0.0 0.0 0.00 0.00 0.00 66 1015.6
20260508064319 48 235 0.0 0.0 0.00 0.00 0.00 65 1015.6
20260508063829 48 231 0.0 0.0 0.00 0.00 0.00 65 1015.6
20260508062833 48 211 0.0 0.0 0.00 0.00 0.00 65 1015.6
20260508062319 48 236 0.0 0.0 0.00 0.00 0.00 65 1015.6
20260508061830 48 238 0.0 0.0 0.00 0.00 0.00 65 1015.5
20260508061317 48 220 0.0 0.0 0.00 0.00 0.00 65 1015.5
20260508060828 48 225 0.0 0.0 0.00 0.00 0.00 65 1015.5
20260508060336 48 225 0.0 0.0 0.00 0.00 0.00 64 1015.6
20260508055825 49 215 0.0 0.0 0.00 0.00 0.00 64 1015.6
20260508055332 49 240 0.0 0.0 0.00 0.00 0.00 63 1015.6
20260508054823 49 195 0.0 0.0 0.00 0.00 0.00 63 1015.6
20260508054334 49 208 0.0 0.0 0.00 0.00 0.00 63 1015.6
20260508053335 49 227 0.0 0.0 0.00 0.00 0.00 62 1015.6
20260508052822 49 231 0.0 0.0 0.00 0.00 0.00 62 1015.6
20260508052332 49 242 0.0 0.0 0.00 0.00 0.00 61 1015.6
20260508051820 50 244 0.0 0.0 0.00 0.00 0.00 61 1015.6
20260508051328 50 209 0.9 0.0 0.00 0.00 0.00 61 1015.6
20260508050836 50 240 0.0 0.0 0.00 0.00 0.00 61 1015.6
20260508050322 49 223 0.0 0.0 0.00 0.00 0.00 61 1015.6
20260508045831 49 209 0.0 0.0 0.00 0.00 0.00 62 1015.6
20260508045322 49 194 0.0 0.0 0.00 0.00 0.00 62 1015.6
20260508044320 49 203 0.0 0.0 0.00 0.00 0.00 62 1015.6
20260508043828 49 203 0.0 0.0 0.00 0.00 0.00 63 1015.6
20260508043318 49 202 0.0 0.0 0.00 0.00 0.00 62 1015.6
20260508042335 49 201 0.0 0.0 0.00 0.00 0.00 62 1015.6
20260508041822 49 201 0.0 0.0 0.00 0.00 0.00 62 1015.6
20260508041331 49 200 0.0 0.0 0.00 0.00 0.00 62 1015.6
20260508040820 49 200 0.0 0.0 0.00 0.00 0.00 62 1015.6
20260508040329 49 201 0.0 0.0 0.00 0.00 0.01 62 1015.6
20260508035330 49 200 0.0 0.0 0.00 0.00 0.01 61 1015.6
20260508034818 50 200 0.0 0.0 0.00 0.00 0.01 61 1015.6
20260508033837 50 201 0.0 0.0 0.00 0.00 0.01 60 1015.6
20260508033323 50 202 0.0 0.0 0.00 0.00 0.01 60 1015.6
20260508032321 51 203 0.0 0.0 0.00 0.00 0.01 59 1015.6
20260508031832 51 202 0.0 0.0 0.00 0.00 0.01 58 1015.5
20260508031319 51 236 0.0 0.0 0.00 0.00 0.01 59 1015.5
20260508030830 51 207 0.0 0.0 0.00 0.00 0.01 59 1015.5
20260508030317 51 207 0.0 0.0 0.00 0.00 0.01 59 1015.5
20260508025825 51 207 0.0 0.0 0.00 0.00 0.01 59 1015.5
20260508025334 50 207 0.0 0.0 0.00 0.00 0.01 59 1015.5
20260508024822 50 207 0.0 0.0 0.00 0.00 0.01 59 1015.5
20260508024332 50 207 0.0 0.0 0.00 0.00 0.01 59 1015.5
20260508023820 50 208 0.0 0.0 0.00 0.00 0.01 59 1015.5
20260508023329 50 208 0.0 0.0 0.00 0.00 0.01 59 1015.3
20260508022816 51 208 0.0 0.0 0.00 0.00 0.01 59 1015.3
20260508022329 51 208 0.0 0.0 0.00 0.00 0.01 59 1015.3
20260508021837 51 207 0.0 0.0 0.00 0.00 0.01 58 1015.3
20260508021325 51 209 0.0 0.0 0.00 0.00 0.01 58 1015.3
20260508020833 51 215 0.0 0.0 0.00 0.00 0.01 59 1015.3
20260508020319 51 244 0.0 0.0 0.00 0.00 0.01 59 1015.5
20260508015828 51 244 0.0 0.0 0.00 0.00 0.01 58 1015.5
20260508015335 51 248 0.0 0.0 0.00 0.00 0.01 59 1015.5
20260508014823 51 249 0.0 0.0 0.00 0.00 0.01 59 1015.4
20260508014330 51 249 0.0 0.0 0.00 0.00 0.01 58 1015.4
20260508013823 51 248 0.0 0.0 0.00 0.00 0.01 58 1015.4
20260508013330 51 249 0.0 0.0 0.00 0.00 0.01 57 1015.5
20260508012836 52 248 0.0 0.0 0.00 0.00 0.01 57 1015.5
20260508012325 52 248 0.0 0.0 0.00 0.00 0.01 56 1015.5
20260508011322 53 248 0.0 0.0 0.00 0.00 0.01 54 1015.4
20260508010831 54 250 0.0 0.0 0.00 0.00 0.01 52 1015.4
20260508010317 54 250 0.0 0.0 0.00 0.00 0.01 51 1015.5
20260508005336 55 250 0.0 0.0 0.00 0.00 0.01 48 1015.5
20260508003828 55 227 0.0 0.0 0.00 0.00 0.01 46 1015.2
20260508003335 55 253 0.0 0.0 0.00 0.00 0.01 46 1015.1
20260508002822 56 234 0.0 0.0 0.00 0.00 0.01 46 1015.1
20260508002332 56 269 0.0 0.0 0.00 0.00 0.01 46 1015.1
20260508001820 56 252 0.9 0.0 0.00 0.00 0.01 45 1015.1
20260508001328 56 271 0.9 0.0 0.00 0.00 0.01 45 1015.1
20260508000329 57 294 0.9 0.0 0.00 0.00 0.01 44 1015.0
20260507235816 57 211 0.0 0.0 0.00 0.00 0.01 43 1015.0
20260507235326 58 277 0.0 0.0 0.00 0.00 0.01 42 1015.0
20260507234817 58 292 0.0 0.0 0.00 0.00 0.01 42 1015.0
20260507234325 58 282 0.0 0.0 0.00 0.00 0.01 43 1015.0
20260507233834 58 323 0.9 0.0 0.00 0.00 0.01 43 1015.0
20260507233321 58 293 0.9 0.0 0.00 0.00 0.01 42 1015.0
20260507232828 59 285 0.9 0.0 0.00 0.00 0.01 42 1015.0
20260507232336 59 293 0.0 0.0 0.00 0.00 0.01 42 1015.0
20260507231823 59 296 0.0 0.0 0.00 0.00 0.01 41 1015.0